Weather History for Sault Ste Marie, MI

Change the Weather History Date:

Thursday, September 26, 2013

  Actual Average Record
Temperature  
Mean Temperature 58 °F 53 °F  
Max Temperature 72 °F 62 °F 84 °F (1908)
Min Temperature 43 °F 44 °F 27 °F (1980)
Degree Days  
Heating Degree Days 7 12  
Month to date heating degree days 226 203  
Since 1 July heating degree days 342 350  
Cooling Degree Days 0 0  
Month to date cooling degree days 14 15  
Year to date cooling degree days 266 193  
Growing Degree Days 8 (Base 50)    
Moisture  
Dew Point 46 °F    
Average Humidity 64    
Maximum Humidity 93    
Minimum Humidity 35    
Precipitation  
Precipitation 0.00 in 0.13 in 1.52 in (1951)
Month to date precipitation 6.59 3.31  
Year to date precipitation 34.88 22.48  
Sea Level Pressure  
Sea Level Pressure 30.12 in    
Wind  
Wind Speed 3 mph (SE)    
Max Wind Speed 10 mph    
Max Gust Speed 13 mph    
Visibility 10 miles    
Events      
T = Trace of Precipitation, MM = Missing Value Source: NWS Daily Summary

Daily Weather History Graph

Daily Weather History Graph

Search for Another Location

Airport:

Trip Planner

Search our weather history database for the weather conditions in past years. The results will help you decide how hot, cold, wet, or windy it might be!

Date:

Astronomy

Sep. 26, 2013 Rise Set
Actual Time 7:29 AM EDT 7:26 PM EDT
Civil Twilight 6:59 AM EDT 7:56 PM EDT
Nautical Twilight 6:24 AM EDT 8:31 PM EDT
Astronomical Twilight 5:48 AM EDT 9:07 PM EDT
Moon No Moon Rise 2:39 PM EDT (9/26)
Length of Visible Light 12h 56m
Length of Day
11h 56m
Waning Gibbous, 55% of the Moon is Illuminated
Sep 26
Waning Gibbous
Sep 26
Last Quarter
Oct 4
New
Oct 11
First Quarter
Oct 18
Full

Hourly Weather History & Observations

Time (EDT) Temp. Windchill Dew Point Humidity Pressure Visibility Wind Dir Wind Speed Gust Speed Precip Events Conditions
12:55 AM 48.9 °F - 46.0 °F 90% 30.05 in 10.0 mi Calm Calm - N/A   Clear
1:55 AM 48.0 °F - 45.0 °F 89% 30.06 in 10.0 mi Calm Calm - N/A   Clear
2:55 AM 46.9 °F - 44.1 °F 90% 30.06 in 10.0 mi Calm Calm - N/A   Clear
3:55 AM 46.9 °F - 44.1 °F 90% 30.07 in 10.0 mi Calm Calm - N/A   Clear
4:55 AM 44.1 °F - 42.1 °F 93% 30.09 in 9.0 mi Calm Calm - N/A   Clear
5:55 AM 44.1 °F 42.5 °F 42.1 °F 93% 30.10 in 8.0 mi NW 3.5 mph - N/A   Clear
6:55 AM 44.1 °F - 41.0 °F 89% 30.12 in 8.0 mi Calm Calm - N/A   Clear
7:55 AM 46.0 °F - 43.0 °F 89% 30.13 in 7.0 mi Calm Calm - N/A   Clear
8:55 AM 48.9 °F - 46.0 °F 90% 30.13 in 10.0 mi Calm Calm - N/A   Clear
9:55 AM 54.0 °F - 48.9 °F 83% 30.14 in 10.0 mi East 3.5 mph - N/A   Clear
10:55 AM 60.1 °F - 51.1 °F 72% 30.14 in 10.0 mi SSE 4.6 mph - N/A   Clear
11:55 AM 64.9 °F - 48.9 °F 56% 30.14 in 10.0 mi Variable 3.5 mph - N/A   Clear
12:55 PM 66.9 °F - 44.1 °F 44% 30.13 in 10.0 mi SE 9.2 mph - N/A   Clear
1:55 PM 69.1 °F - 46.9 °F 45% 30.12 in 10.0 mi SSE 6.9 mph - N/A   Clear
2:55 PM 70.0 °F - 46.9 °F 44% 30.11 in 10.0 mi Calm Calm - N/A   Clear
3:55 PM 71.1 °F - 44.1 °F 38% 30.11 in 10.0 mi SE 6.9 mph - N/A   Clear
4:55 PM 71.1 °F - 42.1 °F 35% 30.12 in 10.0 mi ESE 5.8 mph - N/A   Clear
5:55 PM 70.0 °F - 44.1 °F 39% 30.12 in 10.0 mi ESE 6.9 mph - N/A   Clear
6:55 PM 66.9 °F - 48.0 °F 51% 30.13 in 10.0 mi SE 4.6 mph - N/A   Clear
7:55 PM 62.1 °F - 48.0 °F 60% 30.14 in 10.0 mi SE 4.6 mph - N/A   Clear
8:55 PM 60.1 °F - 46.9 °F 62% 30.14 in 10.0 mi SE 5.8 mph - N/A   Clear
9:55 PM 57.0 °F - 46.9 °F 69% 30.15 in 10.0 mi SE 3.5 mph - N/A   Clear
10:55 PM 55.0 °F - 48.9 °F 80% 30.15 in 10.0 mi East 3.5 mph - N/A   Clear
11:55 PM 53.1 °F - 50.0 °F 89% 30.15 in 10.0 mi East 3.5 mph - N/A   Clear